TimePST,TemperatureF,Dew PointF,Humidity,Sea Level PressureIn,VisibilityMPH,Wind Direction,Wind SpeedMPH,Gust SpeedMPH,PrecipitationIn,Events,Conditions,WindDirDegrees,DateUTC
12:53 AM,45.0,30.9,58,29.88,10.0,East,9.2,-,N/A,,Clear,90,2012-12-04 08:53:00
1:53 AM,46.0,28.9,51,29.84,10.0,East,9.2,-,N/A,,Overcast,100,2012-12-04 09:53:00
2:53 AM,46.9,28.0,48,29.83,10.0,SSE,9.2,-,N/A,,Overcast,150,2012-12-04 10:53:00
3:53 AM,48.0,27.0,44,29.81,10.0,SE,10.4,16.1,N/A,,Overcast,140,2012-12-04 11:53:00
4:53 AM,42.1,36.0,79,29.86,5.0,South,6.9,-,0.03,Rain,Light Rain,180,2012-12-04 12:53:00
5:53 AM,41.0,35.1,79,29.85,8.0,ESE,5.8,-,0.04,Rain,Light Rain,120,2012-12-04 13:53:00
6:53 AM,41.0,36.0,82,29.84,9.0,East,8.1,-,0.00,Rain,Light Rain,80,2012-12-04 14:53:00
7:53 AM,43.0,37.0,80,29.84,10.0,Calm,Calm,-,0.00,,Overcast,0,2012-12-04 15:53:00
8:53 AM,45.0,39.0,80,29.84,10.0,South,8.1,-,N/A,,Overcast,180,2012-12-04 16:53:00
9:53 AM,46.4,39.2,76,29.82,10.0,South,10.4,17.3,N/A,,Overcast,170,2012-12-04 17:53:00
10:53 AM,48.0,42.1,80,29.83,10.0,South,12.7,26.5,N/A,,Overcast,190,2012-12-04 18:53:00
11:53 AM,48.0,42.1,80,29.81,6.0,North,-9999.0,-,N/A,Rain,Light Rain,0,2012-12-04 19:53:00
12:00 PM,48.2,42.8,82,29.80,-9999.0,North,-9999.0,-,N/A,,Unknown,0,2012-12-04 20:00:00
12:10 PM,48.2,42.8,82,29.80,6.0,SSE,16.1,23.0,N/A,Rain,Light Rain,160,2012-12-04 20:10:00
12:53 PM,50.0,42.1,74,29.79,6.0,SSE,16.1,23.0,N/A,Rain,Light Rain,160,2012-12-04 20:53:00
1:00 PM,50.0,42.8,76,29.78,10.0,North,-9999.0,-,N/A,Rain,Light Rain,0,2012-12-04 21:00:00
1:25 PM,-9999,-9999,N/A,29.78,10.0,North,-9999.0,-,N/A,Rain,Light Rain,0,2012-12-04 21:25:00
1:53 PM,-9999,-9999,N/A,29.79,10.0,North,-9999.0,-,N/A,Rain,Light Rain,0,2012-12-04 21:53:00
2:53 PM,-9999,-9999,N/A,29.78,8.0,North,-9999.0,-,N/A,Rain,Light Rain,0,2012-12-04 22:53:00
3:53 PM,-9999,-9999,N/A,29.79,8.0,North,-9999.0,-,N/A,Rain,Light Rain,0,2012-12-04 23:53:00
4:53 PM,-9999,-9999,N/A,29.78,10.0,North,-9999.0,-,N/A,,Overcast,0,2012-12-05 00:53:00
5:00 PM,-9999,-9999,N/A,29.77,-9999.0,North,-9999.0,-,N/A,,Unknown,0,2012-12-05 01:00:00
5:10 PM,-9999,-9999,N/A,29.77,10.0,North,-9999.0,-,N/A,,Mostly Cloudy,0,2012-12-05 01:10:00
5:53 PM,-9999,-9999,N/A,29.76,10.0,North,-9999.0,-,N/A,,Mostly Cloudy,0,2012-12-05 01:53:00
6:53 PM,-9999,-9999,N/A,29.74,10.0,North,-9999.0,-,N/A,,Mostly Cloudy,0,2012-12-05 02:53:00
7:00 PM,-9999,-9999,N/A,29.74,-9999.0,North,-9999.0,-,N/A,,Unknown,0,2012-12-05 03:00:00
7:53 PM,51.1,41.0,68,29.72,10.0,South,10.4,17.3,N/A,,Mostly Cloudy,190,2012-12-05 03:53:00
11:18 PM,48.2,44.6,87,29.72,8.0,SW,6.9,-,0.01,Rain,Light Rain,220,2012-12-05 07:18:00
11:28 PM,48.2,44.6,87,29.72,5.0,SW,4.6,-,0.02,Rain,Light Rain,220,2012-12-05 07:28:00